Location: Antioch
(38.0049°N, 121.8058°W)
Time: 17:47:17
(UTC+00:00)

Cosmos 1354 Rocket - Visible Passes

Search period start: 17 May 2026 00:00
Search period end: 27 May 2026 00:00
Orbit: 760 x 779 km, 74.0° (Epoch: 17 May)

Date Brightness Start Highest point End Pass type
(mag) Time Alt. Az. Time Alt. Az. Time Alt. Az.
17 May 4.3 05:48:05 10° N 05:53:09 49° ENE 05:53:19 49° ENE visible
17 May 6.2 07:31:24 10° NW 07:33:36 16° W 07:33:36 16° W visible
18 May 5.1 05:11:48 10° N 05:16:20 29° ENE 05:17:25 27° E visible
18 May 5.4 06:53:49 10° NW 06:57:43 30° W 06:57:43 30° W visible
19 May 5.8 04:35:54 10° NNE 04:39:23 18° ENE 04:41:34 14° E visible
19 May 4.3 06:16:44 10° NNW 06:21:49 54° WSW 06:21:52 54° WSW visible
20 May 6.2 04:01:23 10° NE 04:02:19 10° NE 04:03:14 10° ENE visible
20 May 3.9 05:39:58 10° NNW 05:45:12 86° ENE 05:46:02 64° SSE visible
21 May 4.4 05:03:25 10° N 05:08:29 49° ENE 05:10:14 35° ESE visible
21 May 6.0 06:46:44 10° NW 06:50:05 17° W 06:50:32 17° WSW visible
22 May 5.1 04:27:07 10° N 04:31:39 29° ENE 04:34:27 18° ESE visible
22 May 5.3 06:09:08 10° NW 06:13:39 30° W 06:14:46 28° WSW visible
23 May 5.7 03:51:13 10° NNE 03:54:43 18° ENE 03:58:10 10° E visible
23 May 4.5 05:32:03 10° NNW 05:37:08 54° WSW 05:39:02 35° SSW visible
24 May 3.9 04:55:16 10° NNW 05:00:31 86° ENE 05:03:20 28° SSE visible
25 May 4.3 04:18:44 10° N 04:23:48 49° ENE 04:27:41 17° SE visible
25 May 6.2 06:02:04 10° NW 06:05:24 17° W 06:07:59 12° SW visible
26 May 5.1 03:42:26 10° N 03:46:58 29° ENE 03:51:28 10° SE visible
26 May 5.5 05:24:27 10° NW 05:28:58 30° W 05:32:23 15° SSW visible
